Year,Month,Day,Hour,Minute,Value (Times are PST for temperature in C)
2007,08,25,00,00,15.40
2007,08,25,00,01,15.40
2007,08,25,00,02,15.40
2007,08,25,00,03,15.40
2007,08,25,00,04,15.40
2007,08,25,00,05,15.40
2007,08,25,00,06,15.30
2007,08,25,00,07,15.30
2007,08,25,00,08,15.30
2007,08,25,00,09,15.30
2007,08,25,00,10,15.20
2007,08,25,00,11,15.20
2007,08,25,00,12,15.20
2007,08,25,00,13,15.20
2007,08,25,00,14,15.20
2007,08,25,00,15,15.10
2007,08,25,00,16,15.10
2007,08,25,00,17,15.10
2007,08,25,00,18,15.00
2007,08,25,00,19,15.00
2007,08,25,00,20,15.00
2007,08,25,00,21,15.00
2007,08,25,00,22,15.00
2007,08,25,00,23,15.00
2007,08,25,00,24,15.00
2007,08,25,00,25,15.00
2007,08,25,00,26,15.00
2007,08,25,00,27,15.00
2007,08,25,00,28,15.00
2007,08,25,00,29,15.00
2007,08,25,00,30,15.00
2007,08,25,00,31,15.00
2007,08,25,00,32,14.90
2007,08,25,00,33,14.90
2007,08,25,00,34,14.80
2007,08,25,00,35,14.90
2007,08,25,00,36,14.90
2007,08,25,00,37,14.80
2007,08,25,00,38,14.80
2007,08,25,00,39,14.80
2007,08,25,00,40,14.80
2007,08,25,00,41,14.80
2007,08,25,00,42,14.70
2007,08,25,00,43,14.70
2007,08,25,00,44,14.70
2007,08,25,00,45,14.60
2007,08,25,00,46,14.60
2007,08,25,00,47,14.70
2007,08,25,00,48,14.80
2007,08,25,00,49,14.90
2007,08,25,00,50,15.00
2007,08,25,00,51,15.00
2007,08,25,00,52,15.00
2007,08,25,00,53,15.00
2007,08,25,00,54,15.00
2007,08,25,00,55,15.10
2007,08,25,00,56,15.10
2007,08,25,00,57,15.20
2007,08,25,00,58,15.20
2007,08,25,00,59,15.20
2007,08,25,01,00,15.20
2007,08,25,01,01,15.20
2007,08,25,01,02,15.20
2007,08,25,01,03,15.10
2007,08,25,01,04,15.00
2007,08,25,01,05,15.10
2007,08,25,01,06,15.10
2007,08,25,01,07,15.20
2007,08,25,01,08,15.20
2007,08,25,01,09,15.30
2007,08,25,01,10,15.30
2007,08,25,01,11,15.40
2007,08,25,01,12,15.40
2007,08,25,01,13,15.40
2007,08,25,01,14,15.40
2007,08,25,01,15,15.40
2007,08,25,01,16,15.40
2007,08,25,01,17,15.40
2007,08,25,01,18,15.40
2007,08,25,01,19,15.40
2007,08,25,01,20,15.40
2007,08,25,01,21,15.40
2007,08,25,01,22,15.40
2007,08,25,01,23,15.30
2007,08,25,01,24,15.30
2007,08,25,01,25,15.30
2007,08,25,01,26,15.30
2007,08,25,01,27,15.30
2007,08,25,01,28,15.30
2007,08,25,01,29,15.30
2007,08,25,01,30,15.30
2007,08,25,01,31,15.30
2007,08,25,01,32,15.30
2007,08,25,01,33,15.30
2007,08,25,01,34,15.30
2007,08,25,01,35,15.30
2007,08,25,01,36,15.30
2007,08,25,01,37,15.30
2007,08,25,01,38,15.20
2007,08,25,01,39,15.20
2007,08,25,01,40,15.20
2007,08,25,01,41,15.10
2007,08,25,01,42,15.10
2007,08,25,01,43,15.10
2007,08,25,01,44,15.00
2007,08,25,01,45,15.00
2007,08,25,01,46,15.00
2007,08,25,01,47,15.00
2007,08,25,01,48,15.00
2007,08,25,01,49,15.00
2007,08,25,01,50,15.00
2007,08,25,01,51,15.00
2007,08,25,01,52,15.00
2007,08,25,01,53,15.00
2007,08,25,01,54,15.00
2007,08,25,01,55,15.00
2007,08,25,01,56,15.00
2007,08,25,01,57,15.00
2007,08,25,01,58,15.00
2007,08,25,01,59,15.10
2007,08,25,02,00,15.20
2007,08,25,02,01,15.20
2007,08,25,02,02,15.30
2007,08,25,02,03,15.40
2007,08,25,02,04,15.40
2007,08,25,02,05,15.40
2007,08,25,02,06,15.40
2007,08,25,02,07,15.50
2007,08,25,02,08,15.40
2007,08,25,02,09,15.50
2007,08,25,02,10,15.50
2007,08,25,02,11,15.50
2007,08,25,02,12,15.50
2007,08,25,02,13,15.50
2007,08,25,02,14,15.50
2007,08,25,02,15,15.50
2007,08,25,02,16,15.50
2007,08,25,02,17,15.40
2007,08,25,02,18,15.40
2007,08,25,02,19,15.40
2007,08,25,02,20,15.40
2007,08,25,02,21,15.40
2007,08,25,02,22,15.40
2007,08,25,02,23,15.40
2007,08,25,02,24,15.40
2007,08,25,02,25,15.40
2007,08,25,02,26,15.40
2007,08,25,02,27,15.40
2007,08,25,02,28,15.40
2007,08,25,02,29,15.40
2007,08,25,02,30,15.40
2007,08,25,02,31,15.40
2007,08,25,02,32,15.40
2007,08,25,02,33,15.40
2007,08,25,02,34,15.40
2007,08,25,02,35,15.40
2007,08,25,02,36,15.30
2007,08,25,02,37,15.30
2007,08,25,02,38,15.30
2007,08,25,02,39,15.30
2007,08,25,02,40,15.30
2007,08,25,02,41,15.30
2007,08,25,02,42,15.30
2007,08,25,02,43,15.30
2007,08,25,02,44,15.30
2007,08,25,02,45,15.30
2007,08,25,02,46,15.30
2007,08,25,02,47,15.30
2007,08,25,02,48,15.30
2007,08,25,02,49,15.30
2007,08,25,02,50,15.30
2007,08,25,02,51,15.30
2007,08,25,02,52,15.30
2007,08,25,02,53,15.40
2007,08,25,02,54,15.40
2007,08,25,02,55,15.40
2007,08,25,02,56,15.40
2007,08,25,02,57,15.40
2007,08,25,02,58,15.30
2007,08,25,02,59,15.30
2007,08,25,03,00,15.30
2007,08,25,03,01,15.30
2007,08,25,03,02,15.30
2007,08,25,03,03,15.30
2007,08,25,03,04,15.30
2007,08,25,03,05,15.30
2007,08,25,03,06,15.20
2007,08,25,03,07,15.20
2007,08,25,03,08,15.20
2007,08,25,03,09,15.20
2007,08,25,03,10,15.20
2007,08,25,03,11,15.20
2007,08,25,03,12,15.10
2007,08,25,03,13,15.20
2007,08,25,03,14,15.20
2007,08,25,03,15,15.20
2007,08,25,03,16,15.20
2007,08,25,03,17,15.20
2007,08,25,03,18,15.20
2007,08,25,03,19,15.20
2007,08,25,03,20,15.20
2007,08,25,03,21,15.10
2007,08,25,03,22,15.10
2007,08,25,03,23,15.10
2007,08,25,03,24,15.10
2007,08,25,03,25,15.10
2007,08,25,03,26,15.10
2007,08,25,03,27,15.10
2007,08,25,03,28,15.10
2007,08,25,03,29,15.20
2007,08,25,03,30,15.20
2007,08,25,03,31,15.20
2007,08,25,03,32,15.20
2007,08,25,03,33,15.20
2007,08,25,03,34,15.20
2007,08,25,03,35,15.20
2007,08,25,03,36,15.20
2007,08,25,03,37,15.20
2007,08,25,03,38,15.20
2007,08,25,03,39,15.20
2007,08,25,03,40,15.20
2007,08,25,03,41,15.20
2007,08,25,03,42,15.20
2007,08,25,03,43,15.20
2007,08,25,03,44,15.20
2007,08,25,03,45,15.20
2007,08,25,03,46,15.20
2007,08,25,03,47,15.20
2007,08,25,03,48,15.20
2007,08,25,03,49,15.20
2007,08,25,03,50,15.20
2007,08,25,03,51,15.20
2007,08,25,03,52,15.30
2007,08,25,03,53,15.30
2007,08,25,03,54,15.30
2007,08,25,03,55,15.20
2007,08,25,03,56,15.20
2007,08,25,03,57,15.20
2007,08,25,03,58,15.10
2007,08,25,03,59,15.00
2007,08,25,04,00,15.00
2007,08,25,04,01,15.00
2007,08,25,04,02,15.00
2007,08,25,04,03,15.00
2007,08,25,04,04,15.00
2007,08,25,04,05,14.90
2007,08,25,04,06,14.90
2007,08,25,04,07,14.80
2007,08,25,04,08,14.80
2007,08,25,04,09,14.80
2007,08,25,04,10,14.80
2007,08,25,04,11,14.80
2007,08,25,04,12,14.80
2007,08,25,04,13,14.80
2007,08,25,04,14,14.90
2007,08,25,04,15,15.00
2007,08,25,04,16,15.00
2007,08,25,04,17,15.00
2007,08,25,04,18,15.00
2007,08,25,04,19,15.00
2007,08,25,04,20,15.00
2007,08,25,04,21,15.00
2007,08,25,04,22,15.00
2007,08,25,04,23,15.00
2007,08,25,04,24,15.00
2007,08,25,04,25,15.10
2007,08,25,04,26,15.10
2007,08,25,04,27,15.10
2007,08,25,04,28,15.20
2007,08,25,04,29,15.20
2007,08,25,04,30,15.10
2007,08,25,04,31,15.10
2007,08,25,04,32,15.10
2007,08,25,04,33,15.00
2007,08,25,04,34,15.00
2007,08,25,04,35,15.00
2007,08,25,04,36,15.00
2007,08,25,04,37,15.00
2007,08,25,04,38,15.00
2007,08,25,04,39,15.00
2007,08,25,04,40,15.00
2007,08,25,04,41,15.00
2007,08,25,04,42,15.00
2007,08,25,04,43,15.00
2007,08,25,04,44,15.00
2007,08,25,04,45,15.00
2007,08,25,04,46,15.00
2007,08,25,04,47,15.00
2007,08,25,04,48,15.00
2007,08,25,04,49,15.00
2007,08,25,04,50,15.00
2007,08,25,04,51,15.00
2007,08,25,04,52,15.00
2007,08,25,04,53,15.00
2007,08,25,04,54,15.00
2007,08,25,04,55,15.00
2007,08,25,04,56,15.00
2007,08,25,04,57,15.00
2007,08,25,04,58,15.00
2007,08,25,04,59,15.00
2007,08,25,05,00,15.00
2007,08,25,05,01,15.00
2007,08,25,05,02,15.00
2007,08,25,05,03,15.00
2007,08,25,05,04,15.00
2007,08,25,05,05,15.00
2007,08,25,05,06,15.00
2007,08,25,05,07,15.00
2007,08,25,05,08,15.00
2007,08,25,05,09,15.00
2007,08,25,05,10,15.00
2007,08,25,05,11,15.00
2007,08,25,05,12,15.00
2007,08,25,05,13,15.00
2007,08,25,05,14,15.00
2007,08,25,05,15,15.00
2007,08,25,05,16,14.90
2007,08,25,05,17,14.90
2007,08,25,05,18,15.00
2007,08,25,05,19,15.00
2007,08,25,05,20,15.00
2007,08,25,05,21,15.00
2007,08,25,05,22,15.00
2007,08,25,05,23,14.90
2007,08,25,05,24,14.90
2007,08,25,05,25,14.90
2007,08,25,05,26,14.90
2007,08,25,05,27,14.90
2007,08,25,05,28,14.90
2007,08,25,05,29,14.90
2007,08,25,05,30,14.90
2007,08,25,05,31,14.90
2007,08,25,05,32,14.90
2007,08,25,05,33,14.90
2007,08,25,05,34,14.90
2007,08,25,05,35,14.80
2007,08,25,05,36,14.80
2007,08,25,05,37,14.80
2007,08,25,05,38,14.80
2007,08,25,05,39,14.80
2007,08,25,05,40,14.80
2007,08,25,05,41,14.70
2007,08,25,05,42,14.70
2007,08,25,05,43,14.70
2007,08,25,05,44,14.60
2007,08,25,05,45,14.60
2007,08,25,05,46,14.60
2007,08,25,05,47,14.50
2007,08,25,05,48,14.60
2007,08,25,05,49,14.50
2007,08,25,05,50,14.50
2007,08,25,05,51,14.50
2007,08,25,05,52,14.50
2007,08,25,05,53,14.60
2007,08,25,05,54,14.60
2007,08,25,05,55,14.60
2007,08,25,05,56,14.60
2007,08,25,05,57,14.60
2007,08,25,05,58,14.60
2007,08,25,05,59,14.60
2007,08,25,06,00,14.60
2007,08,25,06,01,14.60
2007,08,25,06,02,14.60
2007,08,25,06,03,14.60
2007,08,25,06,04,14.60
2007,08,25,06,05,14.60
2007,08,25,06,06,14.60
2007,08,25,06,07,14.60
2007,08,25,06,08,14.60
2007,08,25,06,09,14.60
2007,08,25,06,10,14.60
2007,08,25,06,11,14.60
2007,08,25,06,12,14.60
2007,08,25,06,13,14.60
2007,08,25,06,14,14.60
2007,08,25,06,15,14.60
2007,08,25,06,16,14.60
2007,08,25,06,17,14.70
2007,08,25,06,18,14.70
2007,08,25,06,19,14.70
2007,08,25,06,20,14.70
2007,08,25,06,21,14.70
2007,08,25,06,22,14.70
2007,08,25,06,23,14.70
2007,08,25,06,24,14.60
2007,08,25,06,25,14.60
2007,08,25,06,26,14.60
2007,08,25,06,27,14.60
2007,08,25,06,28,14.60
2007,08,25,06,29,14.50
2007,08,25,06,30,14.50
2007,08,25,06,31,14.50
2007,08,25,06,32,14.50
2007,08,25,06,33,14.50
2007,08,25,06,34,14.50
2007,08,25,06,35,14.50
2007,08,25,06,36,14.40
2007,08,25,06,37,14.40
2007,08,25,06,38,14.40
2007,08,25,06,39,14.40
2007,08,25,06,40,14.40
2007,08,25,06,41,14.40
2007,08,25,06,42,14.40
2007,08,25,06,43,14.50
2007,08,25,06,44,14.50
2007,08,25,06,45,14.60
2007,08,25,06,46,14.60
2007,08,25,06,47,14.60
2007,08,25,06,48,14.60
2007,08,25,06,49,14.60
2007,08,25,06,50,14.60
2007,08,25,06,51,14.60
2007,08,25,06,52,14.70
2007,08,25,06,53,14.70
2007,08,25,06,54,14.70
2007,08,25,06,55,14.70
2007,08,25,06,56,14.70
2007,08,25,06,57,14.70
2007,08,25,06,58,14.80
2007,08,25,06,59,14.80
2007,08,25,07,00,14.80
2007,08,25,07,01,14.80
2007,08,25,07,02,14.90
2007,08,25,07,03,14.90
2007,08,25,07,04,15.00
2007,08,25,07,05,15.00
2007,08,25,07,06,15.00
2007,08,25,07,07,15.00
2007,08,25,07,08,15.00
2007,08,25,07,09,15.00
2007,08,25,07,10,15.00
2007,08,25,07,11,15.00
2007,08,25,07,12,15.00
2007,08,25,07,13,15.00
2007,08,25,07,14,15.00
2007,08,25,07,15,15.00
2007,08,25,07,16,15.00
2007,08,25,07,17,15.00
2007,08,25,07,18,15.00
2007,08,25,07,19,15.10
2007,08,25,07,20,15.10
2007,08,25,07,21,15.20
2007,08,25,07,22,15.20
2007,08,25,07,23,15.20
2007,08,25,07,24,15.20
2007,08,25,07,25,15.20
2007,08,25,07,26,15.30
2007,08,25,07,27,15.30
2007,08,25,07,28,15.30
2007,08,25,07,29,15.30
2007,08,25,07,30,15.30
2007,08,25,07,31,15.30
2007,08,25,07,32,15.30
2007,08,25,07,33,15.30
2007,08,25,07,34,15.30
2007,08,25,07,35,15.30
2007,08,25,07,36,15.30
2007,08,25,07,37,15.30
2007,08,25,07,38,15.30
2007,08,25,07,39,15.30
2007,08,25,07,40,15.40
2007,08,25,07,41,15.30
2007,08,25,07,42,15.30
2007,08,25,07,43,15.40
2007,08,25,07,44,15.30
2007,08,25,07,45,15.30
2007,08,25,07,46,15.30
2007,08,25,07,47,15.30
2007,08,25,07,48,15.30
2007,08,25,07,49,15.30
2007,08,25,07,50,15.40
2007,08,25,07,51,15.40
2007,08,25,07,52,15.40
2007,08,25,07,53,15.40
2007,08,25,07,54,15.40
2007,08,25,07,55,15.40
2007,08,25,07,56,15.40
2007,08,25,07,57,15.40
2007,08,25,07,58,15.50
2007,08,25,07,59,15.50
2007,08,25,08,00,15.50
2007,08,25,08,01,15.50
2007,08,25,08,02,15.50
2007,08,25,08,03,15.50
2007,08,25,08,04,15.60
2007,08,25,08,05,15.60
2007,08,25,08,06,15.60
2007,08,25,08,07,15.60
2007,08,25,08,08,15.60
2007,08,25,08,09,15.60
2007,08,25,08,10,15.60
2007,08,25,08,11,15.60
2007,08,25,08,12,15.60
2007,08,25,08,13,15.60
2007,08,25,08,14,15.60
2007,08,25,08,15,15.60
2007,08,25,08,16,15.60
2007,08,25,08,17,15.60
2007,08,25,08,18,15.60
2007,08,25,08,19,15.60
2007,08,25,08,20,15.60
2007,08,25,08,21,15.60
2007,08,25,08,22,15.60
2007,08,25,08,23,15.60
2007,08,25,08,24,15.60
2007,08,25,08,25,15.60
2007,08,25,08,26,15.60
2007,08,25,08,27,15.60
2007,08,25,08,28,15.60
2007,08,25,08,29,15.60
2007,08,25,08,30,15.70
2007,08,25,08,31,15.70
2007,08,25,08,32,15.70
2007,08,25,08,33,15.70
2007,08,25,08,34,15.70
2007,08,25,08,35,15.70
2007,08,25,08,36,15.70
2007,08,25,08,37,15.80
2007,08,25,08,38,15.80
2007,08,25,08,39,15.80
2007,08,25,08,40,15.80
2007,08,25,08,41,15.90
2007,08,25,08,42,15.90
2007,08,25,08,43,15.90
2007,08,25,08,44,16.00
2007,08,25,08,45,16.00
2007,08,25,08,46,16.10
2007,08,25,08,47,16.10
2007,08,25,08,48,16.10
2007,08,25,08,49,16.20
2007,08,25,08,50,16.20
2007,08,25,08,51,16.30
2007,08,25,08,52,16.30
2007,08,25,08,53,16.40
2007,08,25,08,54,16.50
2007,08,25,08,55,16.50
2007,08,25,08,56,16.60
2007,08,25,08,57,16.60
2007,08,25,08,58,16.70
2007,08,25,08,59,16.70
2007,08,25,09,00,16.70
2007,08,25,09,01,16.70
2007,08,25,09,02,16.70
2007,08,25,09,03,16.70
2007,08,25,09,04,16.70
2007,08,25,09,05,16.70
2007,08,25,09,06,16.60
2007,08,25,09,07,16.60
2007,08,25,09,08,16.60
2007,08,25,09,09,16.60
2007,08,25,09,10,16.50
2007,08,25,09,11,16.50
2007,08,25,09,12,16.40
2007,08,25,09,13,16.40
2007,08,25,09,14,16.30
2007,08,25,09,15,16.30
2007,08,25,09,16,16.30
2007,08,25,09,17,16.30
2007,08,25,09,18,16.20
2007,08,25,09,19,16.20
2007,08,25,09,20,16.20
2007,08,25,09,21,16.20
2007,08,25,09,22,16.20
2007,08,25,09,23,16.20
2007,08,25,09,24,16.20
2007,08,25,09,25,16.20
2007,08,25,09,26,16.20
2007,08,25,09,27,16.20
2007,08,25,09,28,16.20
2007,08,25,09,29,16.30
2007,08,25,09,30,16.30
2007,08,25,09,31,16.30
2007,08,25,09,32,16.30
2007,08,25,09,33,16.30
2007,08,25,09,34,16.40
2007,08,25,09,35,16.40
2007,08,25,09,36,16.40
2007,08,25,09,37,16.50
2007,08,25,09,38,16.50
2007,08,25,09,39,16.60
2007,08,25,09,40,16.60
2007,08,25,09,41,16.70
2007,08,25,09,42,16.80
2007,08,25,09,43,16.80
2007,08,25,09,44,16.90
2007,08,25,09,45,16.90
2007,08,25,09,46,17.00
2007,08,25,09,47,17.00
2007,08,25,09,48,17.10
2007,08,25,09,49,17.10
2007,08,25,09,50,17.10
2007,08,25,09,51,17.20
2007,08,25,09,52,17.20
2007,08,25,09,53,17.20
2007,08,25,09,54,17.30
2007,08,25,09,55,17.30
2007,08,25,09,56,17.40
2007,08,25,09,57,17.50
2007,08,25,09,58,17.60
2007,08,25,09,59,17.70
2007,08,25,10,00,17.70
2007,08,25,10,01,17.80
2007,08,25,10,02,17.80
2007,08,25,10,03,17.80
2007,08,25,10,04,17.90
2007,08,25,10,05,17.90
2007,08,25,10,06,18.00
2007,08,25,10,07,18.10
2007,08,25,10,08,18.10
2007,08,25,10,09,18.20
2007,08,25,10,10,18.20
2007,08,25,10,11,18.30
2007,08,25,10,12,18.30
2007,08,25,10,13,18.40
2007,08,25,10,14,18.50
2007,08,25,10,15,18.70
2007,08,25,10,16,18.80
2007,08,25,10,17,18.90
2007,08,25,10,18,19.00
2007,08,25,10,19,19.00
2007,08,25,10,20,19.00
2007,08,25,10,21,19.00
2007,08,25,10,22,18.90
2007,08,25,10,23,18.90
2007,08,25,10,24,18.90
2007,08,25,10,25,18.90
2007,08,25,10,26,18.90
2007,08,25,10,27,18.90
2007,08,25,10,28,18.80
2007,08,25,10,29,18.80
2007,08,25,10,30,18.80
2007,08,25,10,31,18.80
2007,08,25,10,32,18.80
2007,08,25,10,33,18.70
2007,08,25,10,34,18.70
2007,08,25,10,35,18.70
2007,08,25,10,36,18.70
2007,08,25,10,37,18.70
2007,08,25,10,38,18.70
2007,08,25,10,39,18.70
2007,08,25,10,40,18.70
2007,08,25,10,41,18.70
2007,08,25,10,42,18.80
2007,08,25,10,43,18.80
2007,08,25,10,44,18.80
2007,08,25,10,45,18.80
2007,08,25,10,46,18.80
2007,08,25,10,47,18.80
2007,08,25,10,48,18.90
2007,08,25,10,49,18.90
2007,08,25,10,50,18.90
2007,08,25,10,51,18.90
2007,08,25,10,52,18.90
2007,08,25,10,53,19.00
2007,08,25,10,54,19.00
2007,08,25,10,55,19.10
2007,08,25,10,56,19.10
2007,08,25,10,57,19.10
2007,08,25,10,58,19.10
2007,08,25,10,59,19.20
2007,08,25,11,00,19.20
2007,08,25,11,01,19.30
2007,08,25,11,02,19.30
2007,08,25,11,03,19.40
2007,08,25,11,04,19.50
2007,08,25,11,05,19.70
2007,08,25,11,06,19.70
2007,08,25,11,07,19.80
2007,08,25,11,08,19.90
2007,08,25,11,09,19.90
2007,08,25,11,10,19.90
2007,08,25,11,11,20.00
2007,08,25,11,12,20.00
2007,08,25,11,13,20.00
2007,08,25,11,14,20.00
2007,08,25,11,15,20.00
2007,08,25,11,16,20.00
2007,08,25,11,17,19.90
2007,08,25,11,18,19.90
2007,08,25,11,19,19.90
2007,08,25,11,20,19.90
2007,08,25,11,21,19.90
2007,08,25,11,22,20.00
2007,08,25,11,23,20.00
2007,08,25,11,24,20.10
2007,08,25,11,25,20.20
2007,08,25,11,26,20.20
2007,08,25,11,27,20.10
2007,08,25,11,28,20.10
2007,08,25,11,29,20.00
2007,08,25,11,30,20.00
2007,08,25,11,31,20.10
2007,08,25,11,32,20.10
2007,08,25,11,33,20.10
2007,08,25,11,34,20.20
2007,08,25,11,35,20.20
2007,08,25,11,36,20.10
2007,08,25,11,37,20.10
2007,08,25,11,38,20.10
2007,08,25,11,39,20.10
2007,08,25,11,40,20.10
2007,08,25,11,41,20.10
2007,08,25,11,42,20.00
2007,08,25,11,43,19.90
2007,08,25,11,44,19.80
2007,08,25,11,45,19.80
2007,08,25,11,46,19.60
2007,08,25,11,47,19.60
2007,08,25,11,48,19.60
2007,08,25,11,49,19.60
2007,08,25,11,50,19.50
2007,08,25,11,51,19.40
2007,08,25,11,52,19.40
2007,08,25,11,53,19.40
2007,08,25,11,54,19.40
2007,08,25,11,55,19.40
2007,08,25,11,56,19.40
2007,08,25,11,57,19.40
2007,08,25,11,58,19.30
2007,08,25,11,59,19.30
2007,08,25,12,00,19.20
2007,08,25,12,01,19.30
2007,08,25,12,02,19.20
2007,08,25,12,03,19.20
2007,08,25,12,04,19.30
2007,08,25,12,05,19.30
2007,08,25,12,06,19.40
2007,08,25,12,07,19.50
2007,08,25,12,08,19.60
2007,08,25,12,09,19.80
2007,08,25,12,10,19.90
2007,08,25,12,11,20.10
2007,08,25,12,12,20.20
2007,08,25,12,13,20.30
2007,08,25,12,14,20.40
2007,08,25,12,15,20.40
2007,08,25,12,16,20.40
2007,08,25,12,17,20.50
2007,08,25,12,18,20.60
2007,08,25,12,19,20.70
2007,08,25,12,20,20.70
2007,08,25,12,21,20.60
2007,08,25,12,22,20.50
2007,08,25,12,23,20.30
2007,08,25,12,24,20.20
2007,08,25,12,25,20.10
2007,08,25,12,26,20.10
2007,08,25,12,27,19.90
2007,08,25,12,28,19.80
2007,08,25,12,29,19.80
2007,08,25,12,30,19.50
2007,08,25,12,31,19.40
2007,08,25,12,32,19.40
2007,08,25,12,33,19.40
2007,08,25,12,34,19.50
2007,08,25,12,35,19.60
2007,08,25,12,36,19.70
2007,08,25,12,37,19.80
2007,08,25,12,38,19.90
2007,08,25,12,39,19.80
2007,08,25,12,40,19.70
2007,08,25,12,41,19.70
2007,08,25,12,42,19.60
2007,08,25,12,43,19.60
2007,08,25,12,44,19.60
2007,08,25,12,45,19.70
2007,08,25,12,46,19.70
2007,08,25,12,47,19.70
2007,08,25,12,48,19.80
2007,08,25,12,49,19.80
2007,08,25,12,50,19.90
2007,08,25,12,51,19.90
2007,08,25,12,52,20.00
2007,08,25,12,53,20.00
2007,08,25,12,54,20.00
2007,08,25,12,55,19.90
2007,08,25,12,56,19.90
2007,08,25,12,57,19.90
2007,08,25,12,58,19.90
2007,08,25,12,59,19.90
2007,08,25,13,00,19.80
2007,08,25,13,01,19.80
2007,08,25,13,02,19.80
2007,08,25,13,03,19.80
2007,08,25,13,04,19.90
2007,08,25,13,05,19.90
2007,08,25,13,06,19.90
2007,08,25,13,07,19.90
2007,08,25,13,08,19.90
2007,08,25,13,09,19.80
2007,08,25,13,10,19.70
2007,08,25,13,11,19.70
2007,08,25,13,12,19.80
2007,08,25,13,13,19.80
2007,08,25,13,14,19.80
2007,08,25,13,15,19.80
2007,08,25,13,16,19.80
2007,08,25,13,17,19.80
2007,08,25,13,18,19.90
2007,08,25,13,19,19.90
2007,08,25,13,20,19.90
2007,08,25,13,21,19.80
2007,08,25,13,22,19.70
2007,08,25,13,23,19.70
2007,08,25,13,24,19.70
2007,08,25,13,25,19.60
2007,08,25,13,26,19.60
2007,08,25,13,27,19.50
2007,08,25,13,28,19.40
2007,08,25,13,29,19.40
2007,08,25,13,30,19.30
2007,08,25,13,31,19.20
2007,08,25,13,32,19.10
2007,08,25,13,33,19.10
2007,08,25,13,34,19.10
2007,08,25,13,35,19.10
2007,08,25,13,36,19.00
2007,08,25,13,37,18.90
2007,08,25,13,38,19.00
2007,08,25,13,39,19.00
2007,08,25,13,40,19.10
2007,08,25,13,41,19.10
2007,08,25,13,42,19.20
2007,08,25,13,43,19.30
2007,08,25,13,44,19.30
2007,08,25,13,45,19.40
2007,08,25,13,46,19.30
2007,08,25,13,47,19.30
2007,08,25,13,48,19.30
2007,08,25,13,49,19.30
2007,08,25,13,50,19.30
2007,08,25,13,51,19.30
2007,08,25,13,52,19.30
2007,08,25,13,53,19.30
2007,08,25,13,54,19.20
2007,08,25,13,55,19.20
2007,08,25,13,56,19.30
2007,08,25,13,57,19.30
2007,08,25,13,58,19.30
2007,08,25,13,59,19.30
2007,08,25,14,00,19.30
2007,08,25,14,01,19.30
2007,08,25,14,02,19.30
2007,08,25,14,03,19.20
2007,08,25,14,04,19.10
2007,08,25,14,05,19.10
2007,08,25,14,06,19.00
2007,08,25,14,07,18.90
2007,08,25,14,08,18.80
2007,08,25,14,09,18.80
2007,08,25,14,10,18.70
2007,08,25,14,11,18.60
2007,08,25,14,12,18.60
2007,08,25,14,13,18.50
2007,08,25,14,14,18.30
2007,08,25,14,15,18.20
2007,08,25,14,16,18.10
2007,08,25,14,17,18.00
2007,08,25,14,18,17.90
2007,08,25,14,19,17.80
2007,08,25,14,20,17.80
2007,08,25,14,21,17.70
2007,08,25,14,22,17.70
2007,08,25,14,23,17.70
2007,08,25,14,24,17.70
2007,08,25,14,25,17.70
2007,08,25,14,26,17.60
2007,08,25,14,27,17.60
2007,08,25,14,28,17.60
2007,08,25,14,29,17.60
2007,08,25,14,30,17.60
2007,08,25,14,31,17.60
2007,08,25,14,32,17.60
2007,08,25,14,33,17.60
2007,08,25,14,34,17.60
2007,08,25,14,35,17.60
2007,08,25,14,36,17.60
2007,08,25,14,37,17.60
2007,08,25,14,38,17.60
2007,08,25,14,39,17.60
2007,08,25,14,40,17.60
2007,08,25,14,41,17.70
2007,08,25,14,42,17.70
2007,08,25,14,43,17.70
2007,08,25,14,44,17.70
2007,08,25,14,45,17.60
2007,08,25,14,46,17.50
2007,08,25,14,47,17.40
2007,08,25,14,48,17.30
2007,08,25,14,49,17.20
2007,08,25,14,50,17.20
2007,08,25,14,51,17.20
2007,08,25,14,52,17.20
2007,08,25,14,53,17.20
2007,08,25,14,54,17.20
2007,08,25,14,55,17.20
2007,08,25,14,56,17.10
2007,08,25,14,57,17.10
2007,08,25,14,58,17.10
2007,08,25,14,59,17.10
2007,08,25,15,00,17.10
2007,08,25,15,01,17.10
2007,08,25,15,02,17.10
2007,08,25,15,03,17.20
2007,08,25,15,04,17.20
2007,08,25,15,05,17.20
2007,08,25,15,06,17.20
2007,08,25,15,07,17.20
2007,08,25,15,08,17.30
2007,08,25,15,09,17.30
2007,08,25,15,10,17.30
2007,08,25,15,11,17.30
2007,08,25,15,12,17.40
2007,08,25,15,13,17.30
2007,08,25,15,14,17.30
2007,08,25,15,15,17.20
2007,08,25,15,16,17.20
2007,08,25,15,17,17.20
2007,08,25,15,18,17.20
2007,08,25,15,19,17.20
2007,08,25,15,20,17.10
2007,08,25,15,21,17.10
2007,08,25,15,22,17.00
2007,08,25,15,23,17.00
2007,08,25,15,24,16.90
2007,08,25,15,25,16.80
2007,08,25,15,26,16.70
2007,08,25,15,27,16.60
2007,08,25,15,28,16.60
2007,08,25,15,29,16.60
2007,08,25,15,30,16.60
2007,08,25,15,31,16.60
2007,08,25,15,32,16.50
2007,08,25,15,33,16.50
2007,08,25,15,34,16.50
2007,08,25,15,35,16.50
2007,08,25,15,36,16.40
2007,08,25,15,37,16.40
2007,08,25,15,38,16.40
2007,08,25,15,39,16.50
2007,08,25,15,40,16.50
2007,08,25,15,41,16.60
2007,08,25,15,42,16.60
2007,08,25,15,43,16.70
2007,08,25,15,44,16.80
2007,08,25,15,45,16.80
2007,08,25,15,46,16.90
2007,08,25,15,47,16.90
2007,08,25,15,48,17.00
2007,08,25,15,49,17.00
2007,08,25,15,50,17.00
2007,08,25,15,51,17.00
2007,08,25,15,52,17.10
2007,08,25,15,53,17.10
2007,08,25,15,54,17.10
2007,08,25,15,55,17.10
2007,08,25,15,56,17.10
2007,08,25,15,57,17.20
2007,08,25,15,58,17.20
2007,08,25,15,59,17.20
2007,08,25,16,00,17.30
2007,08,25,16,01,17.30
2007,08,25,16,02,17.40
2007,08,25,16,03,17.50
2007,08,25,16,04,17.60
2007,08,25,16,05,17.60
2007,08,25,16,06,17.60
2007,08,25,16,07,17.70
2007,08,25,16,08,17.70
2007,08,25,16,09,17.70
2007,08,25,16,10,17.70
2007,08,25,16,11,17.80
2007,08,25,16,12,17.90
2007,08,25,16,13,18.00
2007,08,25,16,14,18.00
2007,08,25,16,15,18.10
2007,08,25,16,16,18.10
2007,08,25,16,17,18.20
2007,08,25,16,18,18.20
2007,08,25,16,19,18.30
2007,08,25,16,20,18.30
2007,08,25,16,21,18.30
2007,08,25,16,22,18.20
2007,08,25,16,23,18.30
2007,08,25,16,24,18.20
2007,08,25,16,25,18.30
2007,08,25,16,26,18.30
2007,08,25,16,27,18.30
2007,08,25,16,28,18.40
2007,08,25,16,29,18.40
2007,08,25,16,30,18.40
2007,08,25,16,31,18.50
2007,08,25,16,32,18.50
2007,08,25,16,33,18.50
2007,08,25,16,34,18.60
2007,08,25,16,35,18.60
2007,08,25,16,36,18.70
2007,08,25,16,37,18.70
2007,08,25,16,38,18.80
2007,08,25,16,39,18.80
2007,08,25,16,40,18.80
2007,08,25,16,41,18.80
2007,08,25,16,42,18.80
2007,08,25,16,43,18.80
2007,08,25,16,44,18.80
2007,08,25,16,45,18.80
2007,08,25,16,46,18.80
2007,08,25,16,47,18.70
2007,08,25,16,48,18.70
2007,08,25,16,49,18.70
2007,08,25,16,50,18.70
2007,08,25,16,51,18.70
2007,08,25,16,52,18.70
2007,08,25,16,53,18.70
2007,08,25,16,54,18.80
2007,08,25,16,55,18.80
2007,08,25,16,56,18.80
2007,08,25,16,57,18.80
2007,08,25,16,58,18.80
2007,08,25,16,59,18.80
2007,08,25,17,00,18.80
2007,08,25,17,01,18.80
2007,08,25,17,02,18.70
2007,08,25,17,03,18.70
2007,08,25,17,04,18.70
2007,08,25,17,05,18.80
2007,08,25,17,06,18.80
2007,08,25,17,07,18.70
2007,08,25,17,08,18.70
2007,08,25,17,09,18.70
2007,08,25,17,10,18.80
2007,08,25,17,11,18.80
2007,08,25,17,12,18.80
2007,08,25,17,13,18.90
2007,08,25,17,14,18.90
2007,08,25,17,15,19.00
2007,08,25,17,16,19.10
2007,08,25,17,17,19.10
2007,08,25,17,18,19.20
2007,08,25,17,19,19.10